Regional Weather Roundup
Issued by NWS Green Bay, WI

Home | Current Version | Previous Version | Text Only | Print | Product List | Glossary On
Versions: 1 2 3 4 5 6 7 8 9 10 11 12 13 14 15 16 17 18 19 20 21 22 23 24 25 26 27 28 29 30 31 32 33 34 35 36 37 38 39 40 41 42 43 44 45 46 47 48 49 50
000
ASUS43 KGRB 131400
RWRGRB

NORTH-CENTRAL AND NORTHEAST WISCONSIN REGIONAL WEATHER ROUNDUP
NATIONAL WEATHER SERVICE GREEN BAY WI
800 AM CST SAT FEB 13 2016

WIZ005-009-010>012-018-019-131500-
NORTH CENTRAL WISCONSIN

CITY           SKY/WX    TMP DP  RH WIND       PRES   REMARKS
IRONWOOD       CLOUDY    -4 -11  71 SW13      30.46R WCI -23
MANITOWISH WTR NOT AVBL
ARBOR VITAE    NOT AVBL
EAGLE RIVER    NOT AVBL
LAND O LAKES   NOT AVBL
RHINELANDER    CLOUDY   -11 -17  75 W7        30.43R WCI -26
PHILLIPS       NOT AVBL
ANTIGO         NOT AVBL
TOMAHAWK       NOT AVBL
MERRILL        NOT AVBL
$$

WIZ013-073-131500-
NORTHEAST WISCONSIN

CITY           SKY/WX    TMP DP  RH WIND       PRES   REMARKS
IRON MOUNTAIN  PTCLDY    -9 -14  78 NW5       30.43R HAZE    WCI -20
MARINETTE      CLEAR     -4  -9  77 NW6       30.51R WCI -16
$$

WIZ017-030-035>037-045-131500-
CENTRAL WISCONSIN

CITY           SKY/WX    TMP DP  RH WIND       PRES   REMARKS
MEDFORD        NOT AVBL
WAUSAU         CLOUDY    -9 -16  71 NW8       30.51R WCI -25
MOSINEE        CLEAR     -9 -17  70 NW7       30.52R WCI -24
MARSHFIELD     CLOUDY    -9 -19  61 NW13      30.52R WCI -29
WISC RAPIDS    CLOUDY    -8 -18  61 NW7       30.57R WCI -23
STEVENS POINT  NOT AVBL
WAUPACA        NOT AVBL
SHAWANO        NOT AVBL
CLINTONVILLE   NOT AVBL
WAUTOMA        NOT AVBL
$$

WIZ038-039-048-051-131500-
FOX VALLEY

CITY           SKY/WX    TMP DP  RH WIND       PRES   REMARKS
NWS GREEN BAY  CLEAR     -4 -12  68 NW12      30.54R WCI -22
APPLETON       NOT AVBL
OSHKOSH        CLOUDY    -5 -15  62 W9        30.54R WCI -22
FOND DU LAC    CLOUDY    -3 -14  59 NW13      30.54R WCI -22
$$

WIZ022-050-052-131500-
EAST CENTRAL WISCONSIN

CITY           SKY/WX    TMP DP  RH WIND       PRES   REMARKS
EPHRAIM        NOT AVBL
STURGEON BAY   CLEAR     -4 -11  71 W13       30.50R WCI -23
MANITOWOC      NOT AVBL
SHEBOYGAN      SUNNY     -2 -12  62 NW13      30.52S WCI -20
$$

LMZ563-521-522-541>543-131500-
LAKESHORE

STATION/POSITION TIME  TEMP    WIND        PRES    VSBY  WAVE
                       AIR SEA DIR/SP/G                  HT/PER
                 (UTC) (F)     (DEG/KT/KT) (MB)    (MI)  (FT/S)
SHEBOYGAN LKSHOR 1300   -1     290/ 15/ 18 1035.6R
KEWAUNEE LKSHORE 1300   -3     300/  9/ 13 1031.9R
ALGOMA MARINA    1311          330/  8/ 11   N/A
CHAMBERS ISLAND  1300   -1     270/  6/ 12 1031.5R
MENOMINEE LKSHOR 1300   -4     270/  8     1031.7R
$$



USA.gov is the U.S. government's official web portal to all federal, state and local government web resources and services.